TimeCST,TemperatureF,Dew PointF,Humidity,Sea Level PressureIn,VisibilityMPH,Wind Direction,Wind SpeedMPH,Gust SpeedMPH,PrecipitationIn,Events,Conditions,WindDirDegrees,DateUTC
12:53 AM,42.1,28.0,58,30.03,10.0,SSW,4.6,-,N/A,,Clear,210,2012-11-21 06:53:00
1:53 AM,41.0,28.9,62,30.02,10.0,Calm,Calm,-,N/A,,Clear,0,2012-11-21 07:53:00
2:53 AM,37.9,27.0,65,30.02,10.0,Calm,Calm,-,N/A,,Clear,0,2012-11-21 08:53:00
3:53 AM,33.1,25.0,72,30.02,10.0,Calm,Calm,-,N/A,,Clear,0,2012-11-21 09:53:00
4:53 AM,34.0,25.0,70,30.00,10.0,SSE,3.5,-,N/A,,Clear,150,2012-11-21 10:53:00
5:53 AM,33.1,25.0,72,30.02,10.0,Calm,Calm,-,N/A,,Clear,0,2012-11-21 11:53:00
6:53 AM,28.9,21.9,75,30.03,10.0,Calm,Calm,-,N/A,,Clear,0,2012-11-21 12:53:00
7:53 AM,30.9,25.0,79,30.01,10.0,South,4.6,-,N/A,,Clear,180,2012-11-21 13:53:00
8:53 AM,41.0,28.9,62,29.99,10.0,SSW,9.2,-,N/A,,Clear,200,2012-11-21 14:53:00
9:53 AM,48.2,28.4,46,29.96,10.0,SSW,10.4,-,N/A,,Clear,200,2012-11-21 15:53:00
10:53 AM,54.0,27.0,35,29.95,10.0,SW,13.8,-,N/A,,Clear,220,2012-11-21 16:53:00
11:53 AM,59.0,25.0,27,29.89,10.0,SSW,12.7,-,N/A,,Clear,200,2012-11-21 17:53:00
12:53 PM,63.0,26.1,25,29.87,10.0,SSW,12.7,26.5,N/A,,Clear,200,2012-11-21 18:53:00
1:53 PM,63.0,25.0,24,29.85,10.0,South,16.1,-,N/A,,Clear,190,2012-11-21 19:53:00
2:53 PM,64.0,25.0,23,29.82,10.0,South,16.1,-,N/A,,Clear,180,2012-11-21 20:53:00
3:53 PM,63.0,24.1,23,29.83,10.0,SSW,13.8,-,N/A,,Clear,200,2012-11-21 21:53:00
4:53 PM,59.0,24.1,26,29.83,10.0,South,10.4,-,N/A,,Clear,190,2012-11-21 22:53:00
5:53 PM,51.1,21.9,32,29.84,10.0,SSW,6.9,-,N/A,,Clear,210,2012-11-21 23:53:00
6:53 PM,46.0,21.9,39,29.85,6.0,SSW,3.5,-,N/A,,Haze,210,2012-11-22 00:53:00
7:53 PM,42.1,21.9,45,29.84,10.0,Calm,Calm,-,N/A,,Clear,0,2012-11-22 01:53:00
8:53 PM,34.0,18.0,52,29.82,9.0,Calm,Calm,-,N/A,,Clear,0,2012-11-22 02:53:00
9:53 PM,37.0,21.0,52,29.80,10.0,Calm,Calm,-,N/A,,Clear,0,2012-11-22 03:53:00
10:53 PM,30.9,18.0,59,29.78,10.0,NNW,3.5,-,N/A,,Clear,340,2012-11-22 04:53:00
11:53 PM,32.0,17.1,54,29.76,10.0,Calm,Calm,-,N/A,,Clear,0,2012-11-22 05:53:00